Location: Berlin
(38.3226°N, 75.2177°W)
Time: 11:30:55
(UTC+00:00)

SeaSat 1 - Pass Details

Date: 26 October 2020
Orbit: 744 x 747 km, 108.0° (Epoch: 29 November)

Event Time Altitude Azimuth Distance (km) Brightness Sun altitude
Exits shadow 00:11:22 42° 21° (NNE) 1,053 3.0 -24.6°
Drops below altitude 10° 00:15:03 10° 346° (NNW) 2,269 5.1 -25.4°
Sets 00:17:22 0° 341° (NNW) 3,197 6.0 -25.8°
